DB0OFT-6 Weather Reports


Display with metric or nautical units.
time (UTC)temp
F
wind
direction
speed
MPH
gust
MPH
rain 1hr
in
rain 24hr
in
rain mn
in
humidity
%
barometer
mb
20210412220142 31 157 0.0 0.0 0.00 0.00 0.00 77 979.7
20210412215936 31 157 0.0 0.0 0.00 0.00 0.00 77 979.7
20210412215824 31 180 0.0 0.0 0.00 0.00 0.00 77 979.7
20210412215000 31 180 0.0 0.0 0.00 0.00 0.00 77 979.7
20210412213033 31 157 0.0 0.0 0.00 0.00 0.00 77 979.5
20210412212926 31 157 0.0 0.0 0.00 0.00 0.00 77 979.5
20210412212400 32 180 0.0 0.0 0.00 0.00 0.00 77 979.6
20210412211955 32 180 0.0 0.0 0.00 0.00 0.00 77 979.6
20210412210107 32 180 0.0 0.0 0.00 0.00 0.00 77 979.6
20210412210037 32 157 0.0 0.0 0.00 0.00 0.00 76 979.7
20210412205159 32 157 0.0 0.0 0.00 0.00 0.00 76 979.7
20210412203909 33 157 0.0 0.0 0.00 0.00 0.00 76 979.7
20210412203904 32 180 0.0 0.0 0.00 0.00 0.00 76 979.8
20210412203021 33 157 0.0 0.0 0.00 0.00 0.00 76 979.7
20210412202430 33 180 0.0 0.0 0.00 0.00 0.00 74 979.7
20210412202235 33 180 0.0 0.0 0.00 0.00 0.00 74 979.7
20210412200902 33 180 0.0 0.0 0.00 0.00 0.00 74 979.7
20210412200354 34 180 0.0 0.0 0.00 0.00 0.00 74 979.8
20210412200220 34 180 0.0 0.0 0.00 0.00 0.00 74 979.8
20210412195816 34 157 0.0 0.0 0.00 0.00 0.00 74 979.7
20210412195537 34 157 0.0 0.0 0.00 0.00 0.00 74 979.7
20210412193756 34 180 0.0 0.0 0.00 0.00 0.00 72 979.7
20210412192943 34 180 0.0 0.0 0.00 0.00 0.00 72 979.7
20210412192854 35 180 0.0 0.0 0.00 0.00 0.00 72 979.6
20210412192132 35 180 0.0 0.0 0.00 0.00 0.00 72 979.6
20210412190849 36 180 0.0 0.0 0.00 0.00 0.00 71 979.4
20210412190238 36 180 0.0 0.0 0.00 0.00 0.00 71 979.4
20210412185643 36 180 0.0 0.0 0.00 0.00 0.00 69 979.3
20210412185034 36 180 0.0 0.0 0.00 0.00 0.00 69 979.3
20210412183139 38 180 0.0 0.0 0.00 0.00 0.00 67 979.0
20210412183130 37 180 0.0 0.0 0.00 0.00 0.00 68 979.1
20210412182143 38 180 0.0 0.0 0.00 0.00 0.00 67 979.0
20210412181315 38 180 1.0 0.0 0.00 0.00 0.00 66 979.0
20210412180910 38 180 1.0 0.0 0.00 0.00 0.00 66 979.0
20210412180834 39 180 1.0 0.0 0.00 0.00 0.00 65 979.2
20210412175945 39 337 0.0 0.0 0.00 0.00 0.00 64 979.0
20210412175307 39 337 0.0 0.0 0.00 0.00 0.00 64 979.0
20210412173101 40 0 0.0 0.0 0.00 0.00 0.00 63 979.0
20210412173052 40 0 0.0 0.0 0.00 0.00 0.00 63 979.0
20210412172915 41 337 0.0 0.0 0.00 0.00 0.00 61 979.1
20210412172136 41 337 0.0 0.0 0.00 0.00 0.00 61 979.1
20210412170555 44 22 0.0 0.0 0.00 0.00 0.00 55 978.7
20210412170145 44 22 0.0 0.0 0.00 0.00 0.00 55 978.7
20210412164948 45 180 0.0 0.0 0.00 0.00 0.00 54 978.6
20210412163033 45 90 0.0 0.0 0.00 0.00 0.00 51 978.6
20210412162036 45 157 1.0 0.0 0.00 0.00 0.00 51 978.3
20210412160307 44 112 0.0 0.0 0.00 0.00 0.00 52 978.3
20210412160056 44 112 0.0 0.0 0.00 0.00 0.00 52 978.3
20210412160047 44 0 0.0 0.0 0.00 0.00 0.00 52 978.3
20210412155157 44 0 0.0 0.0 0.00 0.00 0.00 52 978.3
20210412153045 45 0 0.0 0.0 0.00 0.00 0.00 51 978.0
20210412152835 45 247 0.0 0.0 0.00 0.00 0.00 51 978.1
20210412152140 45 247 0.0 0.0 0.00 0.00 0.00 51 978.1
20210412150111 44 0 0.0 0.0 0.00 0.00 0.00 54 978.1
20210412145850 44 315 1.0 0.0 0.00 0.00 0.00 53 978.1
20210412145240 44 315 1.0 0.0 0.00 0.00 0.00 53 978.1
20210412143117 47 0 1.0 0.0 0.00 0.00 0.00 52 977.9
20210412142123 48 135 0.0 0.0 0.00 0.00 0.00 52 978.0
20210412141108 48 180 1.0 0.0 0.00 0.00 0.00 53 977.9
20210412140902 48 180 1.0 0.0 0.00 0.00 0.00 53 977.9
20210412140122 47 157 0.0 0.0 0.00 0.00 0.00 54 978.0
20210412140118 47 157 0.0 0.0 0.00 0.00 0.00 54 978.0
20210412135133 47 112 0.0 0.0 0.00 0.00 0.00 55 978.0
20210412133902 46 202 0.0 0.0 0.00 0.00 0.00 55 977.9
20210412133305 46 157 0.0 0.0 0.00 0.00 0.00 56 978.0
20210412132903 46 157 0.0 0.0 0.00 0.00 0.00 56 978.0
20210412131957 46 112 0.0 0.0 0.00 0.00 0.00 55 978.0
20210412130905 46 112 0.0 0.0 0.00 0.00 0.00 56 978.0
20210412130840 46 112 0.0 0.0 0.00 0.00 0.00 57 977.9
20210412125600 44 315 0.0 0.0 0.00 0.00 0.00 57 977.9
20210412124348 44 67 0.0 0.0 0.00 0.00 0.00 58 978.0
20210412123911 44 67 0.0 0.0 0.00 0.00 0.00 58 978.0
20210412123246 44 67 0.0 0.0 0.00 0.00 0.00 59 978.0
20210412122307 44 202 0.0 0.0 0.00 0.00 0.00 57 977.9
20210412121249 45 270 1.0 0.0 0.00 0.00 0.00 55 977.9
20210412120906 45 270 1.0 0.0 0.00 0.00 0.00 55 977.9
20210412115939 45 22 0.0 0.0 0.00 0.00 0.00 58 977.6
20210412115458 45 22 0.0 0.0 0.00 0.00 0.00 58 977.6
20210412114426 45 247 0.0 0.0 0.00 0.00 0.00 60 977.5
20210412112912 45 247 0.0 0.0 0.00 0.00 0.00 60 977.5
20210412112712 45 247 0.0 0.0 0.00 0.00 0.00 64 977.6
20210412112058 45 247 0.0 0.0 0.00 0.00 0.00 64 977.6
20210412110022 43 0 0.0 0.0 0.00 0.00 0.00 68 977.7
20210412105108 42 315 0.0 0.0 0.00 0.00 0.00 69 977.6
20210412103903 41 0 0.0 0.0 0.00 0.00 0.00 69 977.7
20210412103610 42 0 1.0 0.0 0.00 0.00 0.00 71 977.7
20210412103031 42 0 1.0 0.0 0.00 0.00 0.00 71 977.7
20210412102824 41 112 0.0 0.0 0.00 0.00 0.00 71 977.6
20210412102133 41 112 0.0 0.0 0.00 0.00 0.00 71 977.6
20210412100907 42 135 0.0 0.0 0.00 0.00 0.00 72 977.5
20210412100755 42 90 0.0 0.0 0.00 0.00 0.00 73 977.6
20210412100107 42 90 0.0 0.0 0.00 0.00 0.00 73 977.6
20210412100040 41 0 0.0 0.0 0.00 0.00 0.00 75 977.5
20210412095023 41 0 0.0 0.0 0.00 0.00 0.00 75 977.5
20210412093902 39 225 0.0 0.0 0.00 0.00 0.00 77 977.3
20210412092904 39 315 0.0 0.0 0.00 0.00 0.00 77 977.2
20210412092026 39 135 0.0 0.0 0.00 0.00 0.00 78 977.1
20210412090902 38 202 0.0 0.0 0.00 0.00 0.00 78 976.9
20210412090107 39 157 0.0 0.0 0.00 0.00 0.00 78 976.9
20210412085910 39 157 0.0 0.0 0.00 0.00 0.00 78 976.7
20210412085043 39 157 0.0 0.0 0.00 0.00 0.00 78 976.7
20210412083916 39 292 0.0 0.0 0.00 0.00 0.00 79 976.8
20210412082950 37 157 0.0 0.0 0.00 0.00 0.00 80 976.7
20210412082830 37 112 0.0 0.0 0.00 0.00 0.00 80 976.6
20210412082104 37 112 0.0 0.0 0.00 0.00 0.00 80 976.6
20210412080904 37 202 0.0 0.0 0.00 0.00 0.00 80 976.5
20210412075907 37 202 0.0 0.0 0.00 0.00 0.00 79 976.4
20210412075627 37 22 0.0 0.0 0.00 0.00 0.00 80 976.3
20210412075028 37 22 0.0 0.0 0.00 0.00 0.00 80 976.3
20210412073902 37 225 0.0 0.0 0.00 0.00 0.00 81 976.2
20210412072959 36 315 0.0 0.0 0.00 0.00 0.00 81 976.1
20210412072358 35 315 0.0 0.0 0.00 0.00 0.00 81 976.1
20210412072347 35 112 0.0 0.0 0.00 0.00 0.00 82 975.9
20210412072150 35 315 0.0 0.0 0.00 0.00 0.00 81 976.1
20210412070908 35 112 0.0 0.0 0.00 0.00 0.00 82 975.9
20210412065914 35 22 0.0 0.0 0.00 0.00 0.00 82 975.7
20210412065035 35 315 0.0 0.0 0.00 0.00 0.00 82 975.7
20210412063909 35 90 0.0 0.0 0.00 0.00 0.00 83 975.4
20210412062612 34 315 0.0 0.0 0.00 0.00 0.00 83 975.1
20210412062129 34 315 0.0 0.0 0.00 0.00 0.00 83 975.1
20210412060904 34 292 0.0 0.0 0.00 0.00 0.00 83 975.0
20210412055934 34 0 0.0 0.0 0.00 0.00 0.00 83 974.7
20210412055845 34 315 0.0 0.0 0.00 0.00 0.00 83 974.5
20210412054944 34 315 0.0 0.0 0.00 0.00 0.00 83 974.5
20210412054651 34 337 0.0 0.0 0.00 0.00 0.00 82 974.3
20210412054402 34 337 0.0 0.0 0.00 0.00 0.00 82 974.3
20210412054352 34 315 0.0 0.0 0.00 0.00 0.00 82 974.0
20210412053903 34 337 0.0 0.0 0.00 0.00 0.00 82 974.3
20210412052109 34 0 0.0 0.0 0.00 0.00 0.00 83 973.8
20210412051318 34 45 0.0 0.0 0.00 0.00 0.00 83 973.6
20210412050901 34 45 0.0 0.0 0.00 0.00 0.00 83 973.6
20210412050415 34 90 0.0 0.0 0.00 0.00 0.00 83 973.5
20210412043907 34 225 0.0 0.0 0.00 0.00 0.00 83 973.0
20210412043902 34 337 0.0 0.0 0.00 0.00 0.00 83 973.2
20210412043119 34 225 0.0 0.0 0.00 0.00 0.00 83 973.0
20210412042925 34 270 0.0 0.0 0.00 0.00 0.00 83 972.8
20210412042024 34 270 0.0 0.0 0.00 0.00 0.00 83 972.8
20210412041614 34 337 0.0 0.0 0.00 0.00 0.00 83 972.5
20210412041558 34 45 0.0 0.0 0.00 0.00 0.00 83 972.6
20210412040904 34 22 0.0 0.0 0.00 0.00 0.00 83 972.7
20210412035910 34 337 0.0 0.0 0.00 0.00 0.00 83 972.5
20210412035010 34 45 0.0 0.0 0.00 0.00 0.00 83 972.6
20210412033907 34 247 0.0 0.0 0.00 0.00 0.00 83 972.2
20210412033032 34 45 0.0 0.0 0.00 0.00 0.00 82 972.1
20210412032927 34 45 0.0 0.0 0.00 0.00 0.00 82 972.1
20210412032729 34 315 1.0 0.0 0.00 0.00 0.00 82 972.2
20210412031924 34 315 1.0 0.0 0.00 0.00 0.00 82 972.2
20210412031316 35 270 0.0 0.0 0.00 0.00 0.00 82 972.0
20210412030903 35 270 0.0 0.0 0.00 0.00 0.00 82 972.0
20210412025912 35 112 0.0 0.0 0.00 0.00 0.00 82 971.8
20210412025049 35 157 0.0 0.0 0.00 0.00 0.00 82 971.8
20210412023137 35 270 0.0 0.0 0.00 0.00 0.00 81 971.6
20210412023036 35 270 0.0 0.0 0.00 0.00 0.00 81 971.6
20210412022143 36 112 0.0 0.0 0.00 0.00 0.00 82 971.5
20210412022101 36 112 0.0 0.0 0.00 0.00 0.00 82 971.5
20210412021833 36 45 0.0 0.0 0.00 0.00 0.00 82 971.3
20210412020904 36 45 0.0 0.0 0.00 0.00 0.00 82 971.3
20210412020516 37 67 0.0 0.0 0.00 0.00 0.00 82 971.1
20210412015902 36 247 0.0 0.0 0.00 0.00 0.00 82 971.2
20210412014938 37 67 0.0 0.0 0.00 0.00 0.00 82 971.1
20210412013911 37 112 0.0 0.0 0.00 0.00 0.00 82 970.8
20210412013903 37 202 0.0 0.0 0.00 0.00 0.00 82 971.0
20210412013147 37 112 0.0 0.0 0.00 0.00 0.00 82 970.8
20210412011957 37 90 0.0 0.0 0.00 0.00 0.00 82 970.6
20210412011853 37 135 0.0 0.0 0.00 0.00 0.00 82 970.5
20210412010907 37 135 0.0 0.0 0.00 0.00 0.00 82 970.5
20210412010310 37 157 0.0 0.0 0.00 0.00 0.00 81 970.0
20210412005804 37 157 0.0 0.0 0.00 0.00 0.00 81 970.0
20210412005638 37 157 0.0 0.0 0.00 0.00 0.00 81 970.0
20210412003905 38 45 1.0 0.0 0.00 0.00 0.00 82 969.7
20210412002227 39 315 0.0 0.0 0.00 0.00 0.00 82 969.3
20210412001127 40 247 0.0 0.0 0.00 0.00 0.00 82 969.0
20210412000248 40 247 0.0 0.0 0.00 0.00 0.00 82 969.0
20210411235946 40 247 0.0 0.0 0.00 0.00 0.00 82 969.0
20210411235923 41 315 0.0 0.0 0.00 0.00 0.00 82 968.8
20210411235058 41 315 0.0 0.0 0.00 0.00 0.00 82 968.8
20210411234034 41 315 0.0 0.0 0.00 0.00 0.00 82 968.6
20210411233906 41 315 0.0 0.0 0.00 0.00 0.00 82 968.6
20210411233840 41 315 0.0 0.0 0.00 0.00 0.00 83 968.2
20210411233121 41 315 0.0 0.0 0.00 0.00 0.00 83 968.2
20210411233111 42 90 0.0 0.0 0.00 0.00 0.00 83 968.1
20210411232228 42 90 0.0 0.0 0.00 0.00 0.00 83 968.1
20210411232121 42 292 0.0 0.0 0.00 0.00 0.00 83 968.1
20210411231733 42 292 0.0 0.0 0.00 0.00 0.00 83 968.1
20210411230910 42 292 0.0 0.0 0.00 0.00 0.00 83 968.1
20210411230233 42 270 0.0 0.0 0.00 0.00 0.00 83 967.9
20210411225948 42 270 0.0 0.0 0.00 0.00 0.00 83 967.9
20210411225646 42 315 0.0 0.0 0.00 0.00 0.00 82 968.0
20210411224935 42 315 0.0 0.0 0.00 0.00 0.00 82 968.0
20210411223918 43 315 0.0 0.0 0.00 0.00 0.00 82 967.5
20210411223906 42 0 0.0 0.0 0.00 0.00 0.00 82 967.6
20210411223247 43 315 0.0 0.0 0.00 0.00 0.00 82 967.5
20210411223209 43 315 0.0 0.0 0.00 0.00 0.00 82 967.5
20210411222918 44 22 0.0 0.0 0.00 0.00 0.00 80 967.5
20210411222229 43 337 1.0 0.0 0.00 0.00 0.00 81 967.6
20210411220905 44 22 0.0 0.0 0.00 0.00 0.00 80 967.5